Flag for U.S.A. Weather past 2 weeks in Mountain View, California, U.S.A.

Now
68 °F

Overcast.


Feels Like: 68 °F
Forecast: 63 / 76 °F
Wind: 6 mph from Northwest

Location: Moffett Field

Current Time: Sep 19, 2014 at 12:52:30 AM

Latest Report: Sep 18, 2014 at 11:56 PM


Visibility: 10 mi

Pressure: 29.91 "Hg

Humidity: 78%

Dew point: 61 °F

Location of Mountain ViewLocation

Historic Weather in Mountain View — Graph

°F

Mountain View temperature yesterday

Maximum temperature yesterday: 82 °F (at 2:56 PM)
Minimum temperature yesterday: 68 °F (at 8:56 PM)
Average temperature yesterday: 73 °F

Past Weeks' High & Low Weather Summary

 TemperatureHumidityPressure
High86 °F (Sep 10, 2:56 PM)90% (Sep 10, 5:56 AM)30.02 "Hg (Sep 10, 5:56 AM)
Low56 °F (Sep 9, 1:56 AM)29% (Sep 10, 2:56 PM)29.73 "Hg (Sep 4, 4:56 AM)
Average67 °F70%29.87 "Hg
* Reported Sep 3 10:56 PM — Sep 18 10:56 PM, Mountain View, Weather by CustomWeather, © 2014

Note: Actual official high and low records may vary slightly from our data, if they occured in-between our weather recording intervals... More about our weather records

Advertising

Mountain View weather history for previous 24 hours

 ConditionsComfort  
Time TempWeatherWind HumidityBarometerVisibility
10:56 PM
Sep 18
68 °FOvercast.7 mph78%29.90 "Hg10 mi
10:03 PM68 °FMostly cloudy.9 mph83%29.89 "Hg10 mi
9:56 PM68 °FPassing clouds.8 mph82%29.90 "Hg10 mi
8:56 PM68 °FClear.8 mph78%29.88 "Hg10 mi
7:56 PM70 °FPassing clouds.10 mph68%29.86 "Hg10 mi
6:56 PM72 °FPassing clouds.10 mph64%29.84 "Hg10 mi
5:56 PM76 °FSunny.10 mph58%29.82 "Hg10 mi
4:56 PM78 °FSunny.16 mph54%29.83 "Hg10 mi
3:56 PM78 °FScattered clouds.14 mph52%29.83 "Hg10 mi
2:56 PM82 °FOvercast.3 mph43%29.84 "Hg10 mi
1:56 PM78 °FPartly sunny.5 mph46%29.86 "Hg10 mi
12:56 PM79 °FPartly sunny.6 mph44%29.87 "Hg10 mi
11:56 AM76 °FPartly sunny.8 mph50%29.88 "Hg10 mi
10:56 AM75 °FMostly cloudy.No wind52%29.88 "Hg10 mi
9:56 AM75 °FPartly sunny.6 mph62%29.88 "Hg10 mi
8:56 AM72 °FPartly sunny.7 mph71%29.87 "Hg10 mi
7:56 AM70 °FOvercast.3 mph76%29.85 "Hg10 mi
6:56 AM69 °FPartly cloudy.5 mph81%29.83 "Hg10 mi
5:56 AM70 °FOvercast.5 mph76%29.81 "Hg10 mi
4:56 AM70 °FOvercast.8 mph76%29.80 "Hg10 mi
3:56 AM69 °FOvercast.5 mph79%29.80 "Hg10 mi
2:56 AM69 °FOvercast.8 mph79%29.80 "Hg10 mi
1:56 AM70 °FOvercast.8 mph76%29.80 "Hg10 mi
12:56 AM70 °FOvercast.9 mph73%29.80 "Hg10 mi
Weather by CustomWeather, © 2014

See weather overviewHow to use our weather pages